sat.trackr.live / text

‹ back to catalog

COSMOS 2556

NORAD 52713 · 2022-054A

PAYLOAD ACTIVE UNKNOWN

§ Identity

Operator
Country
CIS
Launch date
2022-05-19
Launch site
PLMSC
Launch vehicle
Mass (kg)
RCS (m²)

External: N2YO · Heavens-Above · Gunter

§ Orbital elements

Epoch: 2026-05-25T05:03:56.916288Z

Period
94.36 min
Inclination
97.6272°
Eccentricity
0.0001907
Mean motion
15.26007815 rev/d
Perigee alt
486.5 km
Apogee alt
489.1 km
Semi-major
6,865.9 km
B*
8.6935e-5
RAAN
94.4323°
Arg perigee
108.5380°
Mean anomaly
251.6065°
Rev number
22,323

§ Raw data

COSMOS 25561 52713U 22054A   26145.21107542  .00002159  00000+0  86935-4 0  99922 52713  97.6272  94.4323 0001907 108.5380 251.6065 15.26007815223232

JSON: /api/v1/satellites/52713 · /tle

For live sub-satellite position, see the globe view (requires WebGL).

§ Visibility from observer

Set your observer location to see the next 7 days of passes ≥ 10°. The values pass through the URL so the page stays shareable.

No JS? Fill the form by hand. The geolocation button needs JavaScript.